Regional Weather Roundup
Issued by NWS

Home | Current Version | Previous Version | Text Only | Print | Product List | Glossary On
Versions: 1 2 3 4 5 6 7 8 9 10 11 12 13 14 15 16 17 18 19 20 21 22 23 24 25 26 27 28 29 30 31 32 33 34 35 36 37 38 39 40 41 42 43 44 45 46 47 48 49 50
000
ASPQ40 PGUM 021814
RWRPQ
WEATHER ROUNDUP FOR THE MARIANAS AND MICRONESIA
NATIONAL WEATHER SERVICE TIYAN GU
400 AM CHST FRI JUL 03 2015

GUZ001>004-021900-
MARIANA ISLANDS-

CITY           SKY/WX    TMP DP  RH WIND       PRES   REMARKS
GUAM AIRPORT   PTCLDY    81  77  89 N10       29.69F
ANDERSEN AFB   CLEAR     81  75  83 N15       29.68F
ROTA AIRPORT   NOT AVBL
TINIAN AP      NOT AVBL
SAIPAN AP      MOCLDY    82  75  78 NE17      29.69F

$$

PMZ161-021900-
REPUBLIC OF PALAU-

CITY           SKY/WX    TMP DP  RH WIND       PRES   REMARKS
KOROR AP       MOCLDY    82  75  78 SW13      29.81F
KOROR WSO      CLOUDY    82  68  61 W14       29.81F

$$

PMZ171>174-021900-
FEDERATED STATES OF MICRONESIA-

CITY           SKY/WX    TMP DP  RH WIND       PRES   REMARKS
YAP AIRPORT    CLOUDY    81  75  83 W10       29.78F
CHUUK AP       CLOUDY    82  77  83 SW14      29.60S HX  91
POHNPEI AP     NOT AVBL
POHNPEI WSO    CLOUDY    79  75  89 SW6       29.74R
KOSRAE AP      NOT AVBL

$$

PMZ181-021900-
REPUBLIC OF THE MARSHALL ISLANDS-

CITY           SKY/WX    TMP DP  RH WIND       PRES   REMARKS
KWAJALEIN AP   CLEAR     82  72  69 NW6       29.75S
MAJURO AP      NOT AVBL
MAJURO WSO     SHOWER    81  79  94 NW15      29.65S

$$



USA.gov is the U.S. government's official web portal to all federal, state and local government web resources and services.